• In Hungary
  • List of Countries
  • For 7 days
  • Water Temperature
  • Satellite Maps
  • Weather Map
  • News
  • Weather Widgets
  • user-avatar
    Login

    Hourly Weather Smolice

    Today, 22 July, Sunday

    Time Temperature Precipitation Wind Pressure Humidity
    00:00 +20°C° 0 mm 1 mps 737 mmHg 75%
    01:00 +19°C° 0 mm 1 mps 737 mmHg 76%
    02:00 +19°C° 0 mm 1 mps 737 mmHg 78%
    03:00 +18°C° 0 mm 1 mps 737 mmHg 79%
    04:00 +18°C° 0 mm 1 mps 737 mmHg 80%
    05:00 +18°C° 0 mm 2 mps 737 mmHg 78%
    06:00 +19°C° 0 mm 2 mps 737 mmHg 75%
    07:00 +20°C° 0 mm 2 mps 737 mmHg 73%
    08:00 +23°C° 0 mm 2 mps 737 mmHg 68%
    09:00 +24°C° 0 mm 3 mps 737 mmHg 63%
    10:00 +26°C° 0 mm 3 mps 737 mmHg 58%
    11:00 +26°C° 0 mm 3 mps 737 mmHg 56%
    12:00 +27°C° 0 mm 4 mps 737 mmHg 55%
    13:00 +28°C° 0 mm 4 mps 737 mmHg 53%
    14:00 +27°C° 0.1 mm 4 mps 737 mmHg 53%
    15:00 +27°C° 0.1 mm 4 mps 737 mmHg 54%
    16:00 +27°C° 0.1 mm 4 mps 737 mmHg 54%
    17:00 +26°C° 0.1 mm 3 mps 737 mmHg 60%
    18:00 +25°C° 0.1 mm 3 mps 737 mmHg 66%
    19:00 +22°C° 0.1 mm 3 mps 737 mmHg 72%
    20:00 +21°C° 0 mm 3 mps 737 mmHg 75%
    21:00 +20°C° 0 mm 2 mps 738 mmHg 77%
    22:00 +19°C° 0 mm 2 mps 738 mmHg 80%
    23:00 +18°C° 0 mm 2 mps 738 mmHg 82%

    Tomorrow, 23 July, Monday

    Time Temperature Precipitation Wind Pressure Humidity
    00:00 +18°C° 0 mm 2 mps 738 mmHg 84%
    01:00 +18°C° 0 mm 2 mps 738 mmHg 85%
    02:00 +17°C° 0 mm 2 mps 738 mmHg 86%
    03:00 +17°C° 0 mm 2 mps 738 mmHg 87%
    04:00 +17°C° 0 mm 2 mps 738 mmHg 88%
    05:00 +18°C° 0 mm 2 mps 739 mmHg 85%
    06:00 +19°C° 0 mm 2 mps 739 mmHg 82%
    07:00 +20°C° 0 mm 3 mps 739 mmHg 79%
    08:00 +22°C° 0 mm 3 mps 739 mmHg 72%
    09:00 +24°C° 0 mm 3 mps 739 mmHg 66%
    10:00 +26°C° 0 mm 4 mps 739 mmHg 59%
    11:00 +26°C° 0 mm 4 mps 739 mmHg 57%
    12:00 +27°C° 0 mm 4 mps 739 mmHg 54%
    13:00 +28°C° 0 mm 4 mps 739 mmHg 51%
    14:00 +28°C° 0.1 mm 4 mps 739 mmHg 52%
    15:00 +27°C° 0.1 mm 4 mps 739 mmHg 53%
    16:00 +27°C° 0.1 mm 4 mps 739 mmHg 54%
    17:00 +26°C° 0.2 mm 4 mps 739 mmHg 60%
    18:00 +25°C° 0.2 mm 3 mps 739 mmHg 66%
    19:00 +24°C° 0.2 mm 2 mps 739 mmHg 71%
    20:00 +23°C° 0 mm 2 mps 740 mmHg 73%
    21:00 +21°C° 0 mm 2 mps 740 mmHg 75%
    22:00 +21°C° 0 mm 1 mps 740 mmHg 76%
    23:00 +20°C° 0 mm 1 mps 740 mmHg 78%

    Day after tomorrow, 24 July, Tuesday

    Time Temperature Precipitation Wind Pressure Humidity
    00:00 +20°C° 0 mm 1 mps 740 mmHg 80%
    01:00 +19°C° 0 mm 1 mps 740 mmHg 81%
    02:00 +18°C° 0 mm 2 mps 740 mmHg 83%
    03:00 +17°C° 0 mm 2 mps 740 mmHg 85%
    04:00 +17°C° 0 mm 2 mps 740 mmHg 88%
    05:00 +18°C° 0 mm 2 mps 740 mmHg 85%
    06:00 +19°C° 0 mm 2 mps 740 mmHg 82%
    07:00 +21°C° 0 mm 3 mps 741 mmHg 79%
    08:00 +22°C° 0 mm 3 mps 741 mmHg 73%
    09:00 +24°C° 0 mm 3 mps 741 mmHg 68%
    10:00 +26°C° 0 mm 4 mps 741 mmHg 62%
    11:00 +26°C° 0.1 mm 4 mps 740 mmHg 60%
    12:00 +27°C° 0.1 mm 4 mps 740 mmHg 58%
    13:00 +27°C° 0.1 mm 4 mps 740 mmHg 56%
    14:00 +27°C° 0 mm 3 mps 740 mmHg 55%
    15:00 +27°C° 0 mm 3 mps 739 mmHg 55%
    16:00 +28°C° 0 mm 3 mps 739 mmHg 55%
    17:00 +26°C° 0 mm 3 mps 739 mmHg 60%
    18:00 +25°C° 0 mm 2 mps 739 mmHg 65%
    19:00 +24°C° 0 mm 2 mps 739 mmHg 70%
    20:00 +23°C° 0 mm 1 mps 739 mmHg 73%
    21:00 +22°C° 0 mm 1 mps 740 mmHg 75%
    22:00 +21°C° 0 mm 1 mps 740 mmHg 78%
    23:00 +20°C° 0 mm 1 mps 740 mmHg 80%

    25 July, Wednesday

    Time Temperature Precipitation Wind Pressure Humidity
    00:00 +20°C° 0 mm 1 mps 740 mmHg 81%
    01:00 +19°C° 0 mm 1 mps 740 mmHg 83%
    02:00 +19°C° 0 mm 1 mps 740 mmHg 84%
    03:00 +19°C° 0 mm 1 mps 740 mmHg 86%
    04:00 +18°C° 0 mm 1 mps 740 mmHg 88%
    05:00 +19°C° 0 mm 2 mps 740 mmHg 84%
    06:00 +20°C° 0 mm 2 mps 740 mmHg 81%
    07:00 +21°C° 0 mm 2 mps 740 mmHg 78%
    08:00 +24°C° 0.2 mm 2 mps 740 mmHg 73%
    09:00 +25°C° 0.2 mm 3 mps 740 mmHg 69%
    10:00 +26°C° 0.2 mm 3 mps 740 mmHg 64%
    11:00 +27°C° 0.3 mm 3 mps 740 mmHg 62%
    12:00 +27°C° 0.3 mm 3 mps 740 mmHg 60%
    13:00 +28°C° 0.3 mm 3 mps 740 mmHg 57%
    14:00 +28°C° 0.1 mm 3 mps 740 mmHg 57%
    15:00 +28°C° 0.1 mm 3 mps 740 mmHg 56%
    16:00 +28°C° 0.1 mm 4 mps 739 mmHg 55%
    17:00 +27°C° 0 mm 3 mps 739 mmHg 60%
    18:00 +26°C° 0 mm 3 mps 739 mmHg 65%
    19:00 +25°C° 0 mm 2 mps 739 mmHg 70%
    20:00 +23°C° 0 mm 2 mps 740 mmHg 73%
    21:00 +22°C° 0 mm 1 mps 740 mmHg 75%
    22:00 +21°C° 0 mm 1 mps 740 mmHg 78%
    23:00 +20°C° 0 mm 1 mps 740 mmHg 79%

    26 July, Thursday

    Time Temperature Precipitation Wind Pressure Humidity
    00:00 +20°C° 0 mm 1 mps 740 mmHg 80%
    01:00 +19°C° 0 mm 1 mps 740 mmHg 81%
    02:00 +19°C° 0 mm 1 mps 740 mmHg 84%
    03:00 +19°C° 0 mm 1 mps 740 mmHg 86%
    04:00 +18°C° 0 mm 1 mps 740 mmHg 88%
    05:00 +19°C° 0 mm 2 mps 741 mmHg 84%
    06:00 +20°C° 0 mm 2 mps 741 mmHg 81%
    07:00 +23°C° 0 mm 2 mps 741 mmHg 77%
    08:00 +24°C° 0 mm 2 mps 741 mmHg 72%
    09:00 +25°C° 0 mm 3 mps 741 mmHg 68%
    10:00 +27°C° 0 mm 3 mps 741 mmHg 63%
    11:00 +27°C° 0.1 mm 3 mps 741 mmHg 61%
    12:00 +28°C° 0.1 mm 4 mps 741 mmHg 58%
    13:00 +29°C° 0.1 mm 4 mps 741 mmHg 56%
    14:00 +29°C° 0.1 mm 4 mps 741 mmHg 55%
    15:00 +29°C° 0.1 mm 4 mps 741 mmHg 55%
    16:00 +29°C° 0.1 mm 4 mps 741 mmHg 54%
    17:00 +28°C° 0 mm 3 mps 741 mmHg 60%
    18:00 +27°C° 0 mm 3 mps 741 mmHg 65%
    19:00 +25°C° 0 mm 2 mps 741 mmHg 71%
    20:00 +24°C° 0 mm 2 mps 741 mmHg 75%
    21:00 +23°C° 0 mm 2 mps 741 mmHg 79%
    22:00 +21°C° 0 mm 2 mps 741 mmHg 82%
    23:00 +20°C° 0 mm 2 mps 741 mmHg 85%

    27 July, Friday

    Time Temperature Precipitation Wind Pressure Humidity
    00:00 +20°C° 0 mm 2 mps 741 mmHg 87%
    01:00 +19°C° 0 mm 2 mps 741 mmHg 90%
    02:00 +19°C° 0 mm 2 mps 741 mmHg 91%
    03:00 +19°C° 0 mm 2 mps 741 mmHg 93%
    04:00 +18°C° 0 mm 2 mps 741 mmHg 95%
    05:00 +19°C° 0 mm 2 mps 741 mmHg 91%
    06:00 +20°C° 0 mm 2 mps 741 mmHg 88%
    07:00 +23°C° 0 mm 2 mps 741 mmHg 84%
    08:00 +24°C° 0 mm 2 mps 741 mmHg 79%
    09:00 +25°C° 0 mm 3 mps 741 mmHg 74%
    10:00 +26°C° 0 mm 3 mps 741 mmHg 69%
    11:00 +27°C° 0 mm 3 mps 741 mmHg 66%
    12:00 +28°C° 0 mm 3 mps 741 mmHg 62%
    13:00 +29°C° 0 mm 3 mps 740 mmHg 58%
    14:00 +29°C° 0 mm 3 mps 740 mmHg 58%
    15:00 +29°C° 0 mm 3 mps 740 mmHg 57%
    16:00 +29°C° 0 mm 3 mps 740 mmHg 57%
    17:00 +28°C° 0.1 mm 3 mps 740 mmHg 63%
    18:00 +27°C° 0.1 mm 2 mps 740 mmHg 70%
    19:00 +26°C° 0.1 mm 2 mps 740 mmHg 76%
    20:00 +24°C° 0 mm 1 mps 740 mmHg 80%
    21:00 +23°C° 0 mm 1 mps 740 mmHg 83%
    22:00 +22°C° 0 mm 1 mps 740 mmHg 87%
    23:00 +22°C° 0 mm 1 mps 740 mmHg 88%
    Show more